Regional Weather Roundup
Issued by NWS Cleveland, OH

Home | Current Version | Previous Version | Graphics & Text | Print | Product List | Glossary On
Versions: 1 2 3 4 5 6 7 8 9 10 11 12 13 14 15 16 17 18 19 20 21 22 23 24 25 26 27 28 29 30 31 32 33 34 35 36 37 38 39 40 41 42 43 44 45 46 47 48 49 50
000
ASUS41 KCLE 030410
RWRCLE
OHIO REGIONAL WEATHER ROUNDUP
NATIONAL WEATHER SERVICE WILMINGTON, OH
1200 AM EDT FRI JUL 03 2015

NOTE: "FAIR" INDICATES FEW OR NO CLOUDS BELOW 12,000 FEET WITH NO
SIGNIFICANT WEATHER AND/OR OBSTRUCTIONS TO VISIBILITY.

OHZ001>008-015>018-024>027-034-035-043-044-030500-
   NORTHWEST OHIO

CITY           SKY/WX    TMP DP  RH WIND       PRES   REMARKS
DEFIANCE       PTCLDY    62  54  74 E3        29.99S
FINDLAY        PTCLDY    63  54  72 E7        29.98S
TOLEDO EXPRESS CLEAR     58  54  86 NE5       29.99S
TOLEDO EXEC    CLEAR     63  56  78 NE6       30.00S
LIMA           PTCLDY    61  55  81 NE6       29.98S
$$

OHZ009>014-019>023-028>033-038-089-030500-
   NORTHEAST OHIO

CITY           SKY/WX    TMP DP  RH WIND       PRES   REMARKS
CLE-HOPKINS    PTCLDY    62  54  74 N3        30.01R
CLE-LAKEFRONT  CLEAR     64  55  72 CALM      29.99R
CUY CO. ARPT   NOT AVBL
LORAIN-ELYRIA  CLEAR     57  56  96 N7        30.00S
ASHTABULA      CLEAR     54  53  97 CALM      30.00S
AKRON-CANTON   PTCLDY    60  54  80 NE6       29.99R
WOOSTER        MOCLDY    59  54  83 N5        30.00R
MANSFIELD      PTCLDY    59  53  80 NE6       30.00R
YOUNGSTOWN     PTCLDY    58  52  80 NE8       29.98F
$$

OHZ042-051>053-060>062-070>072-077>081-030500-
  SOUTHWEST OHIO

CITY           SKY/WX    TMP DP  RH WIND       PRES   REMARKS
CINC-COVINGTON CLOUDY    70  68  93 E6        29.91F FOG
CINC-LUNKEN    CLOUDY    69  69 100 NE3       29.91S FOG
HAMILTON       CLOUDY    71  64  78 E8        29.92F
DAYTON         MOCLDY    67  59  75 NE12      29.96S
WRIGHT-PAT AFB PTCLDY    66  59  77 NE10      29.95S
DAYTON GENERAL CLOUDY    68  61  78 E8        29.93S
WILMINGTON     PTCLDY    66  61  84 E6        29.94R
$$

OHZ036-037-039>041-045>050-054>059-063>069-073>076-082>088-030500-
  CENTRAL AND SOUTHEAST OHIO

CITY           SKY/WX    TMP DP  RH WIND       PRES   REMARKS
COLUMBUS       PTCLDY    65  60  84 NE8       29.95R
OSU AIRPORT    PTCLDY    63  59  87 NE7       29.96R
BOLTON FIELD   PTCLDY    64  62  93 N6        29.96S
RICKENBACK AFB MOCLDY    65  62  90 NE6       29.94S
NEWARK         PTCLDY    65  59  81 N5        29.96R
MARION         PTCLDY    59  55  87 NE5       29.99R
LANCASTER      CLOUDY    66  63  90 CALM      29.95F
ZANESVILLE     MOCLDY    65  60  84 N5        29.96R
NEW PHILLY     CLEAR     60  58  92 CALM      29.98R
$$



USA.gov is the U.S. government's official web portal to all federal, state and local government web resources and services.